Weather reports worldwide

Advertisment
Friesoythe-Altenoythe, Germany (10210): temperature & dewpoint: 07.12.2019 06:00:00 - 13.12.2019 06:00:00 (CET)Friesoythe-Altenoythe, Germany (10210): temperature 5cm & temperature -5cm: 07.12.2019 06:00:00 - 13.12.2019 06:00:00 (CET)Friesoythe-Altenoythe, Germany (10210): temperature -20cm & temperature -100cm: 07.12.2019 06:00:00 - 13.12.2019 06:00:00 (CET)Friesoythe-Altenoythe, Germany (10210): wind speed & gusts: 07.12.2019 06:00:00 - 13.12.2019 06:00:00 (CET)Friesoythe-Altenoythe, Germany (10210): wind direction: 07.12.2019 06:00:00 - 13.12.2019 06:00:00 (CET)Friesoythe-Altenoythe, Germany (10210): reduced air pressure: 07.12.2019 06:00:00 - 13.12.2019 06:00:00 (CET)Friesoythe-Altenoythe, Germany (10210): visibility: 07.12.2019 06:00:00 - 13.12.2019 06:00:00 (CET)Friesoythe-Altenoythe, Germany (10210): sunshine duration: 07.12.2019 06:00:00 - 13.12.2019 06:00:00 (CET)Friesoythe-Altenoythe, Germany (10210): precipitation: 07.12.2019 06:00:00 - 13.12.2019 06:00:00 (CET)
Date & Time tt [°C] td [°C] tt 5cm [°C] tt -5cm [°C] tt -20cm [°C] tt -100cm [°C] ff [km/h] ff [kn] fx [km/h] fx [kn] dd ppp [hPa] vv [km] sd [min] rr [mm]
13.12.2019 06:00:00 2,4 -1,4 1,9 1,0 4,0 8,0 29 16 41 22 SE 978,8 75 0 0,0
13.12.2019 05:00:00 2,3 -1,3 1,7 0,8 4,1 8,0 27 15 41 22 SE 979,6 75 0 0,0
13.12.2019 04:00:00 2,3 -1,1 1,7 0,8 4,2 8,0 32 17 51 27 SE 980,6 72 0 0,0
13.12.2019 03:00:00 2,3 -1,0 1,6 0,9 4,3 8,0 32 18 48 26 SE 982,0 71 0 0,0
13.12.2019 02:00:00 2,4 -0,8 1,7 1,2 4,4 8,0 28 15 44 24 SE 983,8 66 0 0,0
13.12.2019 01:00:00 2,2 -0,6 1,7 1,1 4,5 8,0 26 14 39 21 SE 985,4 60 0 0,0
13.12.2019 00:00:00 1,7 -0,7 1,0 0,8 4,7 8,0 26 14 35 19 SE 987,2 53 0 0,0
12.12.2019 23:00:00 1,9 -0,7 0,9 1,0 4,9 8,0 22 12 37 20 SE 988,9 59 0 0,0
12.12.2019 22:00:00 2,4 -0,6 1,2 1,2 5,0 8,0 24 13 35 19 SE 990,3 69 0 0,0
12.12.2019 21:00:00 2,7 -0,3 1,4 1,5 5,2 8,0 24 13 35 19 SSE 991,7 52 0 0,0
12.12.2019 20:00:00 2,7 0,1 1,5 1,7 5,4 8,0 20 11 31 17 SE 993,0 31 0 0,0
12.12.2019 19:00:00 3,0 0,4 1,6 2,1 5,6 8,0 18 10 29 16 SE 994,2 31 0 0,0
12.12.2019 18:00:00 3,2 0,8 1,6 2,6 5,7 8,0 16 9 22 12 SSE 995,3 33 0 0,0
12.12.2019 17:00:00 3,9 0,9 2,3 3,6 5,8 8,0 16 8 27 14 S 996,2 32 0 0,0
12.12.2019 16:00:00 4,4 1,6 3,2 4,4 5,8 8,0 12 7 29 16 SSW 997,0 28 23 0,0
12.12.2019 15:00:00 5,4 1,8 5,5 5,3 5,7 8,0 18 10 41 22 SSW 997,7 27 34 0,0
12.12.2019 14:00:00 5,3 2,6 4,7 5,6 5,7 8,0 16 9 30 16 SSW 998,3 22 22 0,0
12.12.2019 13:00:00 5,7 3,4 6,0 5,8 5,6 8,0 17 9 29 15 SSW 999,0 18 1 0,0
12.12.2019 12:00:00 5,5 3,5 5,7 5,5 5,5 8,1 21 11 30 16 SW 999,7 18 3 0,0
12.12.2019 11:00:00 5,3 3,9 5,1 5,1 5,5 8,1 16 9 23 12 SW 1000,1 13 0 0,0
12.12.2019 10:00:00 5,0 3,8 4,6 4,7 5,5 8,1 16 8 24 13 SSW 1000,3 12 0 0,1
12.12.2019 09:00:00 4,9 3,5 4,6 4,5 5,5 8,1 13 7 23 13 SSW 1000,1 12 0 0,0
12.12.2019 08:00:00 5,0 3,6 4,7 4,6 5,5 8,1 13 7 22 12 SSW 1000,2 13 0 0,0
12.12.2019 07:00:00 5,2 3,6 4,8 4,7 5,5 8,1 14 8 29 16 SSW 1000,4 16 0 0,0
12.12.2019 06:00:00 5,3 3,8 4,8 4,7 5,5 8,1 14 7 26 14 SSW 1000,3 13 0 0,0
12.12.2019 05:00:00 5,3 4,0 4,9 4,7 5,5 8,1 13 7 25 13 SSW 1000,7 10 0 0,0
12.12.2019 04:00:00 5,0 4,3 4,7 4,6 5,5 8,1 11 6 18 10 S 1001,0 4,9 0 0,0
12.12.2019 03:00:00 4,8 4,0 4,5 4,6 5,6 8,1 9 5 14 8 S 1001,6 5 0 0,0
12.12.2019 02:00:00 4,8 3,8 4,5 4,5 5,6 8,1 10 5 17 9 SSW 1001,9 6 0 0,0
12.12.2019 01:00:00 4,9 3,8 4,5 4,5 5,6 8,1 13 7 22 12 SSW 1002,3 7 0 0,0
12.12.2019 00:00:00 4,8 4,0 4,3 4,4 5,6 8,1 9 5 17 9 SSW 1002,9 5 0 0,0
11.12.2019 23:00:00 5,2 4,2 4,6 4,5 5,7 8,1 9 5 19 11 SSW 1003,2 7 0 0,0
11.12.2019 22:00:00 5,0 4,3 4,3 4,3 5,7 8,1 10 5 16 9 SSW 1003,5 8 0 0,0
11.12.2019 21:00:00 4,9 4,5 4,1 4,6 5,7 8,1 10 5 14 7 SSW 1003,7 4,5 0 0,0
11.12.2019 20:00:00 5,7 4,9 5,3 5,4 5,7 8,1 10 6 16 8 SSW 1004,0 8 0 0,0
11.12.2019 19:00:00 5,7 5,3 5,5 5,4 5,7 8,1 10 6 16 8 SSW 1004,3 5 0 0,0
11.12.2019 18:00:00 5,7 5,5 5,5 5,5 5,6 8,1 8 5 15 8 SSW 1004,2 3,3 0 0,0
11.12.2019 17:00:00 5,8 5,5 5,7 5,6 5,6 8,1 9 5 17 9 SSW 1004,6 4,8 0 0,0
11.12.2019 16:00:00 5,8 5,6 5,8 5,7 5,5 8,1 10 5 16 9 SSW 1004,7 3,9 0 0,1
11.12.2019 15:00:00 5,9 5,6 5,8 5,8 5,4 8,1 10 6 18 10 S 1005,0 3,6 0 0,2
11.12.2019 14:00:00 5,9 5,5 5,9 5,8 5,3 8,1 11 6 18 10 SSW 1005,6 2,6 0 0,1
11.12.2019 13:00:00 5,9 5,3 5,9 5,7 5,2 8,1 11 6 20 11 SSW 1006,3 7 0 0,0
11.12.2019 12:00:00 6,0 5,2 6,0 5,5 5,2 8,1 15 8 25 13 SSW 1007,0 11 0 0,0
11.12.2019 11:00:00 5,7 5,0 5,6 5,0 5,1 8,2 16 8 26 14 SSW 1007,6 12 0 0,0
11.12.2019 10:00:00 5,5 4,7 5,2 4,7 5,1 8,2 18 10 30 16 SSW 1007,8 13 0 0,0
11.12.2019 09:00:00 5,4 4,7 5,0 4,6 5,0 8,2 21 12 32 17 SSW 1007,9 14 0 0,4
11.12.2019 08:00:00 5,3 4,5 4,9 4,5 5,0 8,2 19 10 29 16 SSW 1008,1 16 0 0,7
11.12.2019 07:00:00 5,2 4,3 4,7 4,4 4,9 8,2 21 11 35 19 SSW 1008,0 17 0 1,2
11.12.2019 06:00:00 5,3 3,8 4,6 4,3 4,9 8,2 21 12 42 23 SSW 1008,1 20 0 0,4
11.12.2019 05:00:00 5,7 3,0 5,4 4,2 4,8 8,2 26 14 60 32 SSW 1008,2 41 0 0,0
11.12.2019 04:00:00 7,0 1,8 6,3 4,0 4,8 8,2 35 19 55 30 SSW 1008,1 41 0 0,0
11.12.2019 03:00:00 6,4 1,2 5,8 3,8 4,7 8,2 32 17 49 26 SSW 1008,5 57 0 0,0
11.12.2019 02:00:00 6,3 -0,1 5,6 3,5 4,7 8,2 29 16 49 26 SSW 1009,0 51 0 0,0
11.12.2019 01:00:00 5,9 -1,0 5,3 3,4 4,7 8,2 33 18 50 27 S 1009,6 63 0 0,0
11.12.2019 00:00:00 5,7 -1,3 5,1 3,3 4,7 8,2 29 16 49 27 S 1010,5 65 0 0,0
10.12.2019 23:00:00 5,8 -1,0 5,1 3,3 4,7 8,2 31 17 52 28 S 1011,2 59 0 0,0
10.12.2019 22:00:00 5,3 -0,6 4,7 3,2 4,7 8,2 29 16 55 30 S 1011,9 54 0 0,0
10.12.2019 21:00:00 5,2 0,2 4,7 3,1 4,7 8,2 30 16 51 27 S 1013,1 45 0 0,0
10.12.2019 20:00:00 4,9 0,8 4,3 2,9 4,8 8,2 30 16 46 25 S 1014,6 39 0 0,0
10.12.2019 19:00:00 4,1 1,7 3,5 2,5 4,8 8,2 24 13 36 20 S 1015,7 25 0 0,0
10.12.2019 18:00:00 3,8 1,5 2,7 2,4 4,9 8,2 24 13 37 20 S 1016,8 25 0 0,0
10.12.2019 17:00:00 4,1 1,4 2,7 2,9 4,9 8,2 21 12 34 18 S 1018,0 25 0 0,0
10.12.2019 16:00:00 4,8 1,5 3,7 3,6 4,8 8,2 18 10 32 18 S 1019,0 27 34 0,0
10.12.2019 15:00:00 5,2 2,1 5,6 4,1 4,7 8,2 18 10 36 19 S 1020,2 28 20 0,0
10.12.2019 14:00:00 5,7 1,7 6,3 4,5 4,5 8,2 18 10 31 17 SSW 1021,1 32 60 0,0
10.12.2019 13:00:00 5,2 1,4 5,5 4,2 4,5 8,2 16 9 27 15 SSW 1021,9 33 48 0,0
10.12.2019 12:00:00 4,1 0,6 4,5 3,2 4,4 8,2 15 8 22 12 SSW 1022,8 28 16 0,0
10.12.2019 11:00:00 3,7 0,0 4,3 2,2 4,5 8,2 13 7 20 11 SSW 1023,2 30 60 0,0
10.12.2019 10:00:00 2,8 0,1 3,0 1,6 4,6 8,2 13 7 19 10 SSW 1023,1 35 26 0,0
10.12.2019 09:00:00 1,7 -0,2 0,8 0,8 4,7 8,2 10 5 14 8 SW 1022,7 26 0 0,0
10.12.2019 08:00:00 1,8 -0,2 0,3 1,0 4,8 8,2 11 6 23 12 SW 1022,2 28 0 0,0
10.12.2019 07:00:00 2,5 0,2 1,1 1,1 5,0 8,2 16 9 19 11 WSW 1021,9 27 0 0,0
10.12.2019 06:00:00 2,4 0,5 1,2 1,3 5,1 8,2 10 6 18 10 WSW 1021,3 28 0 0,0
10.12.2019 05:00:00 2,2 0,6 0,6 1,2 5,3 8,2 11 6 16 9 WSW 1021,0 24 0 0,0
10.12.2019 04:00:00 2,5 0,6 0,5 1,7 5,4 8,2 11 6 21 11 W 1019,9 26 0 0,0
10.12.2019 03:00:00 3,5 1,0 1,9 2,0 5,6 8,2 18 10 27 15 WNW 1018,9 24 0 0,0
10.12.2019 02:00:00 3,2 1,0 1,6 2,5 5,7 8,2 13 7 16 9 WSW 1017,5 24 0 0,0
10.12.2019 01:00:00 4,1 0,9 2,4 2,9 5,8 8,2 14 7 33 18 W 1016,7 22 0 0,0
10.12.2019 00:00:00 4,3 0,8 2,8 3,0 5,9 8,2 19 10 51 28 WNW 1015,3 28 0 0,0
09.12.2019 23:00:00 5,0 0,5 3,2 2,9 6,1 8,2 20 11 44 24 WNW 1013,8 30 0 0,0
09.12.2019 22:00:00 5,2 0,6 3,5 3,2 6,2 8,2 22 12 33 18 WNW 1012,7 27 0 0,0
09.12.2019 21:00:00 5,3 1,3 3,6 3,6 6,4 8,2 18 10 30 16 WNW 1010,9 23 0 0,0
09.12.2019 20:00:00 5,3 1,0 3,6 3,9 6,5 8,2 18 10 54 29 NW 1009,3 36 0 0,0
09.12.2019 19:00:00 6,1 1,8 4,2 4,5 6,6 8,2 24 13 37 20 NW 1007,3 26 0 0,0
09.12.2019 18:00:00 6,4 3,1 4,8 5,1 6,6 8,2 19 11 27 15 NW 1005,1 22 0 0,0
09.12.2019 17:00:00 5,9 4,3 5,1 5,9 6,6 8,2 16 8 36 20 WNW 1003,0 37 0 0,6
09.12.2019 16:00:00 5,9 3,5 5,1 6,6 6,6 8,1 35 19 54 29 NNW 1001,2 11 0 0,6
09.12.2019 15:00:00 7,3 5,1 7,2 7,0 6,5 8,1 18 10 28 15 W 998,8 57 1 0,0
09.12.2019 14:00:00 7,3 5,0 8,0 7,1 6,4 8,1 18 10 26 14 WSW 997,3 46 1 0,0
09.12.2019 13:00:00 6,9 4,6 7,5 6,8 6,3 8,1 18 10 26 14 WSW 996,2 64 22 0,0
09.12.2019 12:00:00 6,5 4,4 6,5 6,0 6,3 8,1 16 9 27 15 WSW 995,2 64 0 0,0
09.12.2019 11:00:00 6,6 4,3 6,7 5,8 6,3 8,1 18 10 29 15 SW 994,7 44 0 0,0
09.12.2019 10:00:00 6,8 4,0 6,1 5,3 6,3 8,1 22 12 33 18 SSW 994,2 9 0 0,0
09.12.2019 09:00:00 6,9 3,6 6,3 4,9 6,3 8,1 17 9 27 14 SSW 993,7 43 0 0,0
09.12.2019 08:00:00 6,5 3,6 5,7 4,5 6,4 8,1 19 10 31 17 SSW 993,2 42 0 0,0
09.12.2019 07:00:00 6,6 3,7 5,5 4,9 6,5 8,1 22 12 41 22 SSW 992,9 36 0 0,0
09.12.2019 06:00:00 6,4 3,5 5,3 4,5 6,5 8,1 24 13 44 24 SSW 992,9 35 0 0,0
09.12.2019 05:00:00 6,4 3,7 5,6 4,7 6,6 8,1 25 13 41 22 SSW 993,2 38 0 0,0
09.12.2019 04:00:00 6,6 3,6 5,4 4,7 6,7 8,1 29 16 44 24 SSW 993,2 36 0 0,0
09.12.2019 03:00:00 6,8 3,9 5,9 5,2 6,8 8,1 28 15 46 25 SW 993,6 32 0 0,0
09.12.2019 02:00:00 6,5 4,0 5,3 5,0 6,9 8,1 24 13 36 19 SW 993,6 39 0 0,0
09.12.2019 01:00:00 5,8 3,7 4,6 5,1 7,0 8,1 23 12 39 21 SW 993,7 45 0 0,0
09.12.2019 00:00:00 6,0 3,5 5,2 5,7 7,0 8,1 25 13 63 34 WSW 993,7 75 0 1,0
08.12.2019 23:00:00 7,6 4,7 6,3 5,8 7,1 8,1 22 12 54 29 SW 993,5 23 0 0,4
08.12.2019 22:00:00 6,4 4,6 5,5 5,9 7,2 8,1 39 21 75 41 WSW 993,8 5 0 1,9
08.12.2019 21:00:00 7,9 4,5 7,1 5,7 7,3 8,1 25 14 44 24 SW 994,3 24 0 0,0
08.12.2019 20:00:00 7,6 4,7 6,5 5,9 7,4 8,1 25 14 47 26 SW 994,8 25 0 0,0
08.12.2019 19:00:00 7,9 4,7 6,8 6,1 7,5 8,1 26 14 42 23 SW 995,2 25 0 0,0
08.12.2019 18:00:00 8,2 4,8 6,9 6,7 7,5 8,1 30 16 49 26 WSW 995,7 31 0 0,0
08.12.2019 17:00:00 8,7 5,6 7,2 7,3 7,5 8,1 27 15 55 30 WSW 995,8 36 0 0,0
08.12.2019 16:00:00 9,9 5,7 8,8 8,3 7,5 8,1 35 19 49 27 WSW 995,4 43 0 0,0
08.12.2019 15:00:00 10,6 6,8 9,6 8,6 7,4 8,1 31 17 59 32 WSW 995,1 38 16 0,0
08.12.2019 14:00:00 10,6 8,0 10,3 8,8 7,3 8,1 39 21 58 31 WSW 995,1 65 13 0,1
08.12.2019 13:00:00 10,0 8,5 9,3 8,6 7,2 8,1 39 21 57 31 SW 995,3 18 0 0,1
08.12.2019 12:00:00 9,9 8,5 9,3 8,2 7,1 8,1 35 19 61 33 SW 995,6 15 0 0,2
08.12.2019 11:00:00 9,2 8,2 8,7 7,8 7,1 8,1 34 18 62 33 SW 996,4 4,2 0 0,5
08.12.2019 10:00:00 9,4 7,2 8,7 7,4 7,1 8,1 40 21 61 33 SW 996,9 48 0 0,1
08.12.2019 09:00:00 8,8 6,9 7,8 7,2 7,0 8,1 32 18 60 33 SSW 997,2 19 0 0,5
08.12.2019 08:00:00 9,3 6,0 8,2 7,0 7,0 8,1 37 20 65 35 SW 998,5 25 0 0,0
08.12.2019 07:00:00 9,2 5,0 8,5 6,8 7,0 8,1 36 19 61 33 SW 999,6 57 0 0,0
08.12.2019 06:00:00 9,1 4,9 8,4 6,9 7,0 8,1 36 19 61 33 SW 1000,3 56 0 0,0
08.12.2019 05:00:00 9,2 5,4 8,6 7,0 7,0 8,1 35 19 60 33 SW 1002,2 48 0 0,0
08.12.2019 04:00:00 9,2 5,4 8,7 7,0 7,0 8,1 36 19 53 28 SSW 1003,6 55 0 0,0
08.12.2019 03:00:00 9,0 5,9 8,5 6,9 7,0 8,1 29 16 46 25 SW 1005,1 38 0 0,0
08.12.2019 02:00:00 8,4 5,1 7,9 6,7 7,1 8,1 26 14 41 22 SSW 1006,1 37 0 0,0
08.12.2019 01:00:00 8,5 4,6 7,9 6,8 7,1 8,1 26 14 40 21 SSW 1007,8 49 0 0,0
08.12.2019 00:00:00 8,5 5,3 7,8 6,9 7,1 8,1 24 13 39 21 SW 1008,9 42 0 0,0
07.12.2019 23:00:00 8,6 5,5 7,6 7,0 7,1 8,1 19 10 36 19 SW 1009,5 54 0 0,0
07.12.2019 22:00:00 8,6 6,1 7,7 7,2 7,1 8,1 20 11 37 20 SW 1010,1 34 0 0,0
07.12.2019 21:00:00 8,7 6,8 7,9 7,4 7,1 8,1 23 12 36 19 SW 1010,2 27 0 0,0
07.12.2019 20:00:00 8,8 7,1 8,1 7,5 7,1 8,1 23 13 32 17 WSW 1010,7 26 0 0,0
07.12.2019 19:00:00 8,7 7,4 8,1 7,5 7,1 8,1 19 11 30 16 WSW 1011,0 22 0 0,0
07.12.2019 18:00:00 9,0 7,2 8,1 7,6 7,1 8,1 21 12 33 18 WSW 1010,8 29 0 0,0
07.12.2019 17:00:00 8,8 7,6 8,1 7,8 7,0 8,1 19 10 36 19 WSW 1010,4 26 0 0,2
07.12.2019 16:00:00 9,1 7,3 8,4 8,0 7,0 8,1 23 13 35 19 WSW 1009,8 30 0 0,0
07.12.2019 15:00:00 9,3 7,2 8,7 8,2 6,9 8,1 22 12 39 21 WSW 1009,3 37 0 0,0
07.12.2019 14:00:00 9,5 7,2 8,9 8,3 6,8 8,1 24 13 37 20 WSW 1009,0 43 0 0,9
07.12.2019 13:00:00 9,1 7,2 8,5 8,3 6,7 8,1 26 14 45 25 W 1008,8 4,3 0 0,0
07.12.2019 12:00:00 9,2 7,4 8,8 8,0 6,6 8,1 29 16 38 21 W 1008,5 22 0 0,1
07.12.2019 11:00:00 8,9 7,6 8,5 7,7 6,5 8,1 26 14 42 23 WSW 1008,3 23 0 0,0
07.12.2019 10:00:00 8,9 7,1 8,3 7,4 6,4 8,1 29 15 41 22 W 1007,6 33 0 0,0
07.12.2019 09:00:00 8,8 7,2 8,0 7,2 6,4 8,1 28 15 40 22 W 1007,0 11 0 0,0
07.12.2019 08:00:00 8,8 7,3 8,1 7,1 6,3 8,1 28 15 45 24 WSW 1005,8 25 0 0,0
07.12.2019 07:00:00 8,7 7,3 8,1 7,1 6,2 8,1 27 14 43 23 W 1004,9 25 0 0,0
07.12.2019 06:00:00 8,7 7,5 8,0 7,0 6,2 8,1 29 16 42 23 W 1004,0 7 0 0,0

tt = temperature
td = dewpoint
tt 5cm = temperature 5cm
tt -5cm = temperature -5cm
tt -20cm = temperature -20cm
tt -100cm = temperature -100cm
ff = wind speed
fx = gusts
dd = wind direction
ppp = reduced air pressure
vv = visibility
sd = sunshine duration
rr = precipitation

Next stations